Location: Carimao
(10.4546°N, 66.7419°W)
Time: 09:13:46
(UTC+00:00)

Cosmos 1725 Rocket - Pass Details

Date: 19 May 2024
Orbit: 962 x 989 km, 82.9° (Epoch: 22 June)

Event Time Altitude Azimuth Distance (km) Brightness Sun altitude
Rises 23:27:15 0° 2° (N) 3,681 7.3 -11.0°
Reaches altitude 10° 23:29:48 10° 6° (N) 2,736 6.6 -11.6°
Maximum altitude 23:36:00 62° 86° (E) 1,098 4.0 -13.0°
Drops below altitude 10° 23:42:13 10° 166° (SSE) 2,742 6.0 -14.4°
Sets 23:44:45 0° 169° (S) 3,690 6.7 -15.0°
Enters shadow 23:44:48 - 169° (S) 3,708 6.7 -15.0°
